Miscellaneous Local Product
Issued by NWS North Platte, NE

Home | Current Version | Previous Version | Graphics & Text | Print | Product List | Glossary On
Versions: 1 2 3 4 5 6 7 8 9 10 11 12 13 14 15 16 17 18 19 20 21 22 23 24 25 26 27 28 29 30 31 32 33 34 35 36 37 38 39 40 41 42 43 44 45 46 47 48 49 50
000
AXUS43 KLBF 242110
MISLBF


WESTERN AND NORTH CENTRAL NEBRASKA HOURLY WEATHER ROUNDUP
NATIONAL WEATHER SERVICE NORTH PLATTE NE
300 PM CST SAT JAN 24 2015

***STATIONS NOT REPORTING VARIABLES SUCH AS SKY/WEATHER OR
PRESSURE ARE PROVIDED BY THE NEBRASKA DEPARTMENT OF
ROADS...RAWS...AND APRS NETWORKS...AND ARE NOT UNDER
NATIONAL WEATHER SERVICE QUALITY CONTROL***

...OBSERVATIONS IN AND NEAR THE EASTERN PANHANDLE OF NEBRASKA...

CITY           SKY/WX    TMP DP  RH WIND       PRES   REMARKS
PINE RIDGE     CLOUDY    49  30  48 W18G30    29.79F
CHADRON        PTSUNNY   48  34  58 W28G40    29.85F
ALLIANCE       CLOUDY    43  30  60 W18       29.86F
SIDNEY         CLOUDY    47  27  45 NW21G29   29.91F
$$

...OBSERVATIONS IN NORTH CENTRAL NEBRASKA...

CITY           SKY/WX    TMP DP  RH WIND       PRES   REMARKS
VALENTINE      LGT RAIN  47  35  63 W26G33    29.71F
THEDFORD       CLOUDY    49  35  56 NW15G26   29.77F
AINSWORTH      CLOUDY    47  30  51 W15       29.69F
O`NEILL        CLOUDY    52  31  44 W17G24    29.67F
ORD            CLOUDY    53  27  36 W16       29.72F
BROKEN BOW     CLOUDY    52  27  38 W14       29.75F
$$

...OBSERVATIONS IN SOUTHWEST NEBRASKA AND FAR NORTHEAST COLORADO...

CITY           SKY/WX    TMP DP  RH WIND       PRES   REMARKS
WRAY           FAIR      53  20  28 W15G21    29.92S
HOLYOKE        LGT RAIN  46  30  53 W12G18    29.91S
IMPERIAL       LGT RAIN  46  29  51 NW16G30   29.88S
OGALLALA       CLOUDY    43  33  66 W13       29.86F
NORTH PLATTE   CLOUDY    52  26  36 W17       29.81F
MCCOOK         PTSUNNY   55  23  28 W17       29.84F
LEXINGTON      CLOUDY    54  24  31 NW21      29.78F
$$

...NORTH PLATTE AREA...

CITY           SKY/WX    TMP DP  RH WIND       PRES   REMARKS
AIRPORT        CLOUDY    52  26  36 W17       29.81F
$$

...SOME WEATHER OBSERVATIONS FROM AROUND THE REGION...

CITY           SKY/WX    TMP DP  RH WIND       PRES   REMARKS
DENVER         CLOUDY    53  18  25 NW8       29.98S
LARAMIE        CLOUDY    39  18  42 W20G28    30.07R WCI  29
CHEYENNE       CLOUDY    46  18  32 W18G31    29.99S
SCOTTSBLUFF    CLOUDY    44  28  53 W17       29.93R
RAPID CITY     LGT RAIN  49  39  68 NW38G48   29.77R
PIERRE         CLOUDY    52  35  52 W13       29.59F
WINNER         CLOUDY    53  36  52 W18       29.64F
SIOUX FALLS    CLOUDY    42  33  70 W8        29.60F
OMAHA          CLOUDY    54  31  41 SW8       29.68F
GRAND ISLAND   PTSUNNY   52  27  38 W16       29.74F
KANSAS CITY    PTSUNNY   57  30  35 W17G23    29.77F
WICHITA        PTSUNNY   64  27  24 W20G26    29.87F
HAYS           PTSUNNY   61  27  27 W17G26    29.84F
LIBERAL        SUNNY     57  27  30 SW20G29   29.96F
GOODLAND       PTSUNNY   56  25  30 NW18      29.91F
$$



USA.gov is the U.S. government's official web portal to all federal, state and local government web resources and services.